Location: Vihti�l�
(61.3833°N, 23.0667°E)
Time: 03:24:44
(UTC+00:00)

Cosmos 2297 Rocket - Pass Details

Date: 29 November 2020
Orbit: 840 x 843 km, 71.0° (Epoch: 19 January)

Event Time Altitude Azimuth Distance (km) Brightness Sun altitude
Exits shadow 02:48:18 54° 7° (N) 1,029 2.6 -29.3°
Drops below altitude 10° 02:52:56 10° 42° (NE) 2,477 5.2 -28.7°
Sets 02:55:25 0° 46° (NE) 3,414 6.1 -28.4°
